Weather in Ostana

Uzbekistan     41°20′33″N   60°33′52″E
temp.,
°C
wind,
m/s
gust,
m/s
humid.,
%
clouds,
%
prec.,
mm/h
press.,
hPa
HPBL,
m
4 july, mon
mon423:00+29nnw611295 0.0 10041306
02:00+27nw9132685 0.0 1004948
05:00+23nnw811325 0.0 1006774
08:00+23nw810260 0.0 1008970
11:00+26wnw911210 0.0 10091645
14:00+29wnw1012190 0.0 10082294
17:00+30wnw1012200 0.0 10072757
20:00+29wnw711210 0.0 10072837
5 july, tue
tue523:00+27nnw58262 0.0 1008341
02:00+24nw36360 0.0 1009182
05:00+22nw45350 0.0 101095
08:00+25nw45310 0.0 1012534
11:00+28wnw45270 0.0 10122138
14:00+31nw44210 0.0 10102597
17:00+32wnw55180 0.0 10092838
20:00+31wnw45180 0.0 10092498
6 july, wed
wed623:00+28nw46210 0.0 1009100
02:00+27ssw22230 0.0 100811
05:00+26sw57250 0.0 1008108
08:00+28wnw58270 0.0 1008619
11:00+31wnw912260 0.0 10092750
14:00+31wnw1113170 0.0 10092738
17:00+30wnw1011172 0.0 10092887
20:00+29wnw89192 0.0 10103029
7 july, thu
thu723:00+25nnw510300 0.0 1011537
02:00+23nw38320 0.0 1012247
05:00+21nnw35400 0.0 1013102
08:00+24nw45360 0.0 1015591
11:00+27nw45300 0.0 10152049
14:00+30nnw55230 0.0 10132300
17:00+31n55220 0.0 10122510
20:00+29nne87260 0.0 10121034
8 july, fri
fri823:00+26nne810300 0.0 1013615
02:00+22nne69420 0.0 1013410
05:00+20nne58470 0.0 1013334
08:00+22ne56390 0.0 1014539
11:00+27ne55240 0.0 10131559
14:00+31nne65170 0.0 10112138
17:00+32nne76150 0.0 10102408
20:00+30ne77180 0.0 10101913